Location: Ocean City
(38.3360°N, 75.0850°W)
Time: 15:34:44
(UTC-05:00)

Explorer 11/Cluster Stage 4 - Pass Details

Date: 17 November 2019
Orbit: 467 x 1259 km, 28.8° (Epoch: 05 December)

Event Time Altitude Azimuth Distance (km) Brightness Sun altitude
Rises 01:51:35 0° 264° (W) 4,097 - -56.4°
Reaches altitude 10° 01:55:12 10° 249° (WSW) 3,194 - -55.8°
Maximum altitude 02:00:55 21° 205° (SSW) 2,485 - -54.8°
Drops below altitude 10° 02:06:38 10° 160° (SSE) 3,187 - -53.7°
Sets 02:10:16 0° 145° (SE) 4,085 - -53.1°
